Regional Weather Roundup
Issued by NWS Portland, ME

Current Version | Previous Version | Text Only | Print | Product List | Glossary Off
Versions: 1 2 3 4 5 6 7 8 9 10 11 12 13 14 15 16 17 18 19 20 21 22 23 24 25 26 27 28 29 30 31 32 33 34 35 36 37 38 39 40 41 42 43 44 45 46 47 48 49 50
784 ASUS41 KGYX 231810 RWRGYX WEATHER ROUNDUP FOR MAINE AND NEW HAMPSHIRE NATIONAL WEATHER SERVICE GRAY ME 200 PM EDT TUE OCT 23 2018 MEZ002-005-006-010-012-015-018-020-021-024-026-027-029-231900- MAINE CITY SKY/WX TMP DP RH WIND PRES REMARKS PORTLAND CLOUDY 47 43 86 VRB6 30.09F 6HR MIN TEMP: 38; 6HR MAX TEMP: 49; 6HR PCP: 0.03; SANFORD PTSUNNY 47 43 86 E8 30.06F BAR HARBOR LGT RAIN 46 43 89 E3 30.15F WISCASSET NOT AVBL ROCKLAND FAIR 52 41 66 S13G21 30.12 FRYEBURG LGT RAIN 44 32 62 NE6 30.08F 6HR MIN TEMP: 33; 6HR MAX TEMP: 45; 6HR PCP: TRACE; LEWISTONAUBURN LGT RAIN 43 36 75 NE5 30.10F AUGUSTA PTSUNNY 44 33 65 N7 30.11F 6HR MIN TEMP: 34; 6HR MAX TEMP: 44; WATERVILLE LGT RAIN 41 32 70 NE8 30.10F BANGOR CLOUDY 40 33 76 N8 30.16F 6HR MIN TEMP: 34; 6HR MAX TEMP: 41; 6HR PCP: 0.03; GREENVILLE N/A 32 30 92 SE6 30.09F 6HR MIN TEMP: 26; 6HR MAX TEMP: 33; 6HR PCP: 0.01; MILLINOCKET LGT SNOW 33 30 88 E6 30.19F FOG 6HR MIN TEMP: 30; 6HR MAX TEMP: 33; 6HR PCP: 0.05; HOULTON NOT AVBL PRESQUE ISLE CLOUDY 38 21 50 SE9 30.19F 6HR MIN TEMP: 20; 6HR MAX TEMP: 38; FRENCHVILLE FAIR 39 19 44 VRB5 30.14F 6HR MIN TEMP: 28; 6HR MAX TEMP: 40; CARIBOU PTSUNNY 38 19 46 SW3 30.17F 6HR MIN TEMP: 22; 6HR MAX TEMP: 39; $$ NHZ002-005-008-009-011-012-014-231900- NEW HAMPSHIRE CITY SKY/WX TMP DP RH WIND PRES REMARKS PORTSMOUTH CLOUDY 55 40 59 SE18 30.04F ROCHESTER CLOUDY 49 43 80 E7 30.04F 6HR MIN TEMP: 38; 6HR MAX TEMP: 51; 6HR PCP: TRACE; NASHUA PTSUNNY 55 45 67 SE12 29.99F MANCHESTER CLOUDY 54 43 66 SE15 29.99F 6HR MIN TEMP: 40; 6HR MAX TEMP: 54; 6HR PCP: TRACE; CONCORD LGT RAIN 48 44 86 CALM 30.01F 6HR MIN TEMP: 38; 6HR MAX TEMP: 49; 6HR PCP: 0.01; LACONIA LGT RAIN 44 40 85 NE9 30.03F PLYMOUTH LGT RAIN 43 38 84 MISG 30.02F BERLIN CLOUDY 46 32 58 SE12 30.03F 6HR MIN TEMP: 34; 6HR MAX TEMP: 47; WHITEFIELD CLOUDY 47 34 60 S13 30.00F 6HR MIN TEMP: 34; 6HR MAX TEMP: 48; 6HR PCP: TRACE; JAFFREY NOT AVBL KEENE CLOUDY 53 42 66 VRB3 29.95F LEBANON RAIN 44 40 85 CALM 29.99F FOG 6HR MIN TEMP: 38; 6HR MAX TEMP: 47; 6HR PCP: 0.15; MT WASHINGTON SNOWSHWR 23 23 100 S33 N/A VSB 0 WCI 5 6HR MIN TEMP: 22; 6HR MAX TEMP: 24; 6HR PCP: 0.02; $$ VTZ005-007-008-231900- VERMONT CITY SKY/WX TMP DP RH WIND PRES REMARKS ST JOHNSBURY N/A 43 38 82 MISG 29.99F MONTPELIER LGT RAIN 40 38 93 VRB5 30.01F BURLINGTON LGT RAIN 45 38 76 E9 29.98F $$ MAZ007-012-024-CTZ003-RIZ002-NYZ038-NYZ072-231900- SOUTHERN NEW ENGLAND AND NY CITY SKY/WX TMP DP RH WIND PRES REMARKS BOSTON LGT RAIN 55 46 71 E9 30.02F WORCESTER PTSUNNY 52 46 80 SE8 29.97F NANTUCKET CLOUDY 57 49 74 SE15 30.03F PROVIDENCE PTSUNNY 57 47 69 S15 29.99F HARTFORD PTSUNNY 59 47 64 SE9 29.93F ALBANY PTSUNNY 56 40 55 S9 29.92F NEW YORK CITY FAIR 65 43 44 SW10 29.94F $$ ANZ081-ANZ082-ANZ150-NHZ014-MEZ023>029-231900- COASTAL MARINE OBSERVATIONS STATION/POSITION TIME TEMP WIND PRES WAVE AIR SEA DIR/SP/G HT/PER (UTC) (F) (DEG/KT/KT) (MB) (FT/S) MOUNT DESERT ROC 1800 51 150/ 15/ 17 1020.8F MATINICUS ROCK 1700 55 180/ 16/ 17 1020.1F ISLE OF SHOALS 1700 52 140/ 18/ 19 1017.9F JEFFREYS LEDGE 1706 54 N/A 3/ 4 $$ .............KEY.............. WCI - WIND CHILL TC - TEMPERATURE IN CELSIUS VSB - VISIBILITY IN MILES HX - HEAT INDEX FAIR- INDICATES FEW OR NO CLOUDS BELOW 12,000 FT, WITH NO SIGNIFICANT WEATHER AND/OR OBSTRUCTIONS TO VISIBILITY.

USA.gov is the U.S. government's official web portal to all federal, state and local government web resources and services.